User: anonymous   Login
Location: Unspecified
(0.0000°N, 0.0000°E)
Time: 01:54:39
(UTC+02:00)
Language:

Iridium 39 - Orbit

View from above orbital plane
View from above orbital plane
View from above satellite
View from above satellite

Ground track
Ground track

The orbit data is extracted from the following two-line orbital elements,

1 25042U 97069D   15216.31755047  .00000324  00000-0  10860-3 0  9998
2 25042 086.4009 307.6156 0002240 091.2641 268.8811 14.34220096928432
Epoch (UTC): 04 August 2015 07:37:16
Eccentricity: 0.0002240
inclination: 86.4009°
perigee height: 776 km
apogee height: 779 km
right ascension of ascending node: 307.6156°
argument of perigee: 91.2641°
revolutions per day: 14.34220096
mean anomaly at epoch: 268.8811°
orbit number at epoch: 92843

The dashed part of the orbit path shows where the satellite is in the earth's shadow,  

DLR